This is the latest recevied weather packets stored in our database for station/object DM2KB-13. If no packets are shown the sender has not sent any weather packets the latest 10 day(s).
| Time | Temp. | Humidity | Pressure | Rain* | Wind** | Luminosity | Snow |
|---|---|---|---|---|---|---|---|
| 1777721156 | 24.44° C | 49% | 1017 hPa | 0 mm | - | 759 W/m² | - |
| 1777720856 | 24.44° C | 48% | 1017.1 hPa | 0 mm | - | 631 W/m² | - |
| 1777720556 | 24.44° C | 48% | 1017.2 hPa | 0 mm | - | 708 W/m² | - |
| 1777720256 | 24.44° C | 47% | 1017.1 hPa | 0 mm | - | 661 W/m² | - |
| 1777719955 | 24.44° C | 48% | 1017.1 hPa | 0 mm | - | 510 W/m² | - |
| 1777719655 | 24.44° C | 47% | 1017.3 hPa | 0 mm | - | 471 W/m² | - |
| 1777719355 | 24.44° C | 48% | 1017.2 hPa | 0 mm | - | 454 W/m² | - |
| 1777719054 | 24.44° C | 48% | 1017.3 hPa | 0 mm | - | 675 W/m² | - |
| 1777718754 | 24.44° C | 48% | 1017.4 hPa | 0 mm | - | 613 W/m² | - |
| 1777718454 | 23.89° C | 48% | 1017.4 hPa | 0 mm | - | 466 W/m² | - |
| 1777718154 | 23.89° C | 48% | 1017.4 hPa | 0 mm | - | 561 W/m² | - |
| 1777717853 | 24.44° C | 47% | 1017.5 hPa | 0 mm | - | 606 W/m² | - |
| 1777717553 | 23.89° C | 47% | 1017.6 hPa | 0 mm | - | 710 W/m² | - |
| 1777717253 | 23.89° C | 48% | 1017.7 hPa | 0 mm | - | 675 W/m² | - |
| 1777716953 | 23.89° C | 48% | 1017.7 hPa | 0 mm | - | 772 W/m² | - |
| 1777716652 | 23.33° C | 47% | 1017.8 hPa | 0 mm | - | 765 W/m² | - |
| 1777716352 | 23.33° C | 47% | 1017.8 hPa | 0 mm | - | 675 W/m² | - |
| 1777716052 | 23.33° C | 46% | 1017.7 hPa | 0 mm | - | 626 W/m² | - |
| 1777715751 | 23.33° C | 47% | 1017.8 hPa | 0 mm | - | 740 W/m² | - |
| 1777715451 | 23.33° C | 46% | 1017.8 hPa | 0 mm | - | 772 W/m² | - |
| 1777715151 | 23.33° C | 47% | 1018 hPa | 0 mm | - | 701 W/m² | - |
| 1777714851 | 22.78° C | 48% | 1018 hPa | 0 mm | - | 742 W/m² | - |
| 1777714550 | 22.78° C | 48% | 1018.1 hPa | 0 mm | - | 657 W/m² | - |
| 1777714250 | 22.78° C | 48% | 1018.1 hPa | 0 mm | - | 663 W/m² | - |
| 1777713950 | 22.78° C | 47% | 1018 hPa | 0 mm | - | 705 W/m² | - |
* Rain latest hour (hover to see other rain measurements)
** Current wind speed in m/s (hover to see current wind gust speed)